Miscellaneous Local Product
Issued by NWS Hastings, NE

Home | Current Version | Previous Version | Graphics & Text | Print | Product List | Glossary On
Versions: 1 2 3 4 5 6 7 8 9 10 11 12 13 14 15 16 17 18 19 20 21 22 23 24 25 26 27 28 29 30 31 32 33 34 35 36 37 38 39 40 41 42 43 44 45 46 47 48 49 50
794
AXUS43 KGID 231902
MISGRI

GID CWA HOURLY WEATHER ROUNDUP
NATIONAL WEATHER SERVICE HASTINGS NE
200 PM CDT THU MAR 23 2017

NOTE: "FAIR" INDICATES FEW OR NO CLOUDS BELOW 12,000 FEET WITH NO
SIGNIFICANT WEATHER AND/OR OBSTRUCTIONS TO VISIBILITY.

...SOUTH CENTRAL NEBRASKA...

CITY           SKY/WX    TMP DP  RH WIND       PRES   REMARKS
GRAND ISLAND   CLOUDY    56  54  93 SE17G24   29.71F FOG
HASTINGS       CLOUDY    60  54  80 S13G21    29.70F
KEARNEY        CLOUDY    57  54  88 S15       29.67F
ORD            LGT RAIN  51  49  92 SE14G21   29.65F FOG
YORK           PTSUNNY   59  54  82 S17       29.75F THUNDER
AURORA         CLOUDY    57  53  85 S14       29.72F
LEXINGTON      CLOUDY    58  56  96 SE12      29.64F FOG
HOLDREGE       CLOUDY    63  56  78 S20G25    29.65F
HEBRON         CLOUDY    68  56  65 S23G32    29.72F

...NEBRASKA PANHANDLE...

CITY           SKY/WX    TMP DP  RH WIND       PRES   REMARKS
CHADRON        SUNNY     64  40  41 MISG      29.60S
ALLIANCE       SUNNY     61  40  45 CALM      29.60F
SCOTTSBLUFF    SUNNY     64  40  41 SE9       29.61F
SIDNEY         CLOUDY    64  39  39 VRB3      29.63F

...WESTERN AND NORTH CENTRAL NEBRASKA...

CITY           SKY/WX    TMP DP  RH WIND       PRES   REMARKS
VALENTINE      CLOUDY    56  44  64 SW14      29.61F
AINSWORTH      CLOUDY    55  49  82 S17       29.63F
ONEILL         CLOUDY    53  50  90 S18G26    29.66F
BROKEN BOW     CLOUDY    53  31  42 S13G25    29.65F HAZE
IMPERIAL       SUNNY     72  47  40 SW6       29.60F
NORTH PLATTE   CLOUDY    61  53  75 SE9       29.63F
MCCOOK         SUNNY     78  53  41 S13G25    29.59F

...EASTERN NEBRASKA...

CITY           SKY/WX    TMP DP  RH WIND       PRES   REMARKS
NORFOLK        CLOUDY    55  45  68 SE18      29.68F
SO SIOUX CITY  CLOUDY    55  39  54 S17       29.79F
TEKAMAH        CLOUDY    59  39  47 S16       29.80F
COLUMBUS       CLOUDY    57  48  72 S20G26    29.76F
ALBION         CLOUDY    55  50  86 S17G23    29.71F HAZE
OMAHA EPPLEY   PTSUNNY   65  42  43 S17G26    29.77F
OFFUTT AFB     LGT RAIN  66  47  50 SE16G25   29.77F
MILLARD        LGT RAIN  67  49  50 SE15G22   29.77F
LINCOLN        CLOUDY    68  52  56 S17       29.75F
NEBRASKA CITY  PTSUNNY   70  42  36 S24G31    29.79F
BEATRICE       CLOUDY    69  55  62 S18G25    29.77S THUNDER
FALLS CITY     MOSUNNY   73  51  46 S29G37    29.79F

...NORTHERN KANSAS...

CITY           SKY/WX    TMP DP  RH WIND       PRES   REMARKS
GOODLAND       SUNNY     78  43  28 S14G24    29.61F
HILL CITY      PTSUNNY   77  58  51 S21G37    29.65F
NORTON         CLEAR     75  52  43 S21G26    29.61
PHILLIPSBURG   CLOUDY    72  57  60 SE21G29   29.66F
HAYS             N/A     76  58  53 S31G39    29.68F
RUSSELL        PTSUNNY   73  57  57 S31G41    29.69F
CONCORDIA      PTSUNNY   69  57  65 S29G40    29.75F
SALINA         PTSUNNY   69  56  62 S25G39    29.78F
TOPEKA         SUNNY     76  54  46 S20G32    29.83F



USA.gov is the U.S. government's official web portal to all federal, state and local government web resources and services.